User: anonymous   Login
Location: Unspecified
(0.0000°N, 0.0000°E)
Time: 07:54:11
(UTC+00:00)
Language:

EO-79 - Orbit

View from above orbital plane
View from above orbital plane
View from above satellite
View from above satellite

Ground track
Ground track

The orbit data is extracted from the following two-line orbital elements,

1 40025U 14033R   18110.74682903  .00000346  00000-0  43041-4 0  9991
2 40025  97.9070  26.2584 0013074  20.5923 339.5818 14.88681474208242
Epoch (UTC): 20 April 2018 17:55:26
Eccentricity: 0.0013074
inclination: 97.9070°
perigee height: 593 km
apogee height: 611 km
right ascension of ascending node: 26.2584°
argument of perigee: 20.5923°
revolutions per day: 14.88681474
mean anomaly at epoch: 339.5818°
orbit number at epoch: 20824

The dashed part of the orbit path shows where the satellite is in the earth's shadow,  

DLR